Regional Weather Roundup
Issued by NWS

Home | Current Version | Previous Version | Text Only | Print | Product List | Glossary On
Versions: 1 2 3 4 5 6 7 8 9 10 11 12 13 14 15 16 17 18 19 20 21 22 23 24 25 26 27 28 29 30 31 32 33 34 35 36 37 38 39 40 41 42 43 44 45 46 47 48 49 50
000
ASUS43 KMPX 292310
RWRMN
WEATHER ROUNDUP FOR MINNESOTA
NATIONAL WEATHER SERVICE TWIN CITIES/CHANHASSEN MN
600 PM CDT WED JUL 29 2015


NOTE: "FAIR" INDICATES FEW OR NO CLOUDS BELOW 12,000 FEET WITH NO
SIGNIFICANT WEATHER AND/OR OBSTRUCTIONS TO VISIBILITY. N/A MEANS
CURRENT SKY AND/OR WEATHER CONDITIONS ARE NOT AVAILABLE.

MNZ060>063-068>070-300000-
   Twin Cities Metro

CITY           SKY/WX    TMP DP  RH WIND       PRES   REMARKS
TWIN CITIES    MOSUNNY   82  53  36 W23G36    29.94R
ST PAUL        PTSUNNY   80  55  42 W16G36    29.93S
CRYSTAL        MOSUNNY   82  55  39 W21G26    29.92S
BLAINE         MOSUNNY   82  54  36 W21G33    29.92F
LAKEVILLE      SUNNY     79  54  41 W16G22    29.97R
EDEN PRAIRIE   MOSUNNY   82  54  37 W15G25    29.94S
SOUTH ST PAUL  MOSUNNY   81  51  35 W13G24    29.94S
LAKE ELMO      FAIR      79  55  44 W22G32    29.94S
$$
MNZ001>005-007-008-013>017-022>024-027-028-300000-
   Northwest Minnesota

CITY           SKY/WX    TMP DP  RH WIND       PRES   REMARKS
BEMIDJI        MOSUNNY   77  52  42 W23G31    29.85R
HALLOCK        MOSUNNY   79  50  36 NW15G22   29.80R
ROSEAU         SUNNY     73  55  53 W16G28    29.78R
WARROAD        MOSUNNY   75  57  53 W18G30    29.76R
THIEF RVR FALL PTSUNNY  N/A N/A N/A W23G35    29.83R
CROOKSTON      SUNNY     81  54  39 NW26G35   29.85R
FOSSTON        MOSUNNY   75  54  46 W21G33    29.87R
DETROIT LAKES  MOSUNNY   77  50  38 NW20G35   29.94R
MOORHEAD       MOSUNNY   81  57  44 W16       29.92S
PARK RAPIDS    MOSUNNY   78  51  38 W25G35    29.89R
MAHNOMEN       FAIR      77  53  43 W21G32    29.89R
$$
MNZ006-009>011-018-025>026-300000-
   North Central Minnesota

CITY           SKY/WX    TMP DP  RH WIND       PRES   REMARKS
BAUDETTE       PTSUNNY   74  53  48 W23G35    29.74R
FLAG ISLAND    CLOUDY    70  57  64 W21G35    29.72R
INTL FALLS     PTSUNNY   74  56  53 W14G28    29.71S
WASKISH        SUNNY     75  55  50 W23G33    29.79R
BIG FORK       SUNNY     75  52  43 W17G26    29.80R
LONGVILLE      MOSUNNY   73  52  46 W14G22    29.86S
GRAND RAPIDS   PTSUNNY   75  52  43 W17G28    29.83R
CRANE LAKE     CLOUDY    68  57  68 SW3       29.74S
ORR            MOSUNNY   73  52  46 W13G22    29.73R
COOK           SUNNY     75  54  46 W18G33    29.76S
WALKER         MOCLDY    74  51  44 W16G25    29.85S
$$
MNZ012-019>021-037-300000-
   Northeast Minnesota

CITY           SKY/WX    TMP DP  RH WIND       PRES   REMARKS
DULUTH         MOSUNNY   78  54  43 W24G30    29.81R
ELY            PTSUNNY   72  57  60 W14G20    29.75F
HIBBING        PTSUNNY   76  52  43 W16G26    29.80R
EVELETH        SUNNY     77  52  41 W21G29    29.80R
DULUTH HARBOR  MOSUNNY   81  55  41 W28G37    29.78S
TWO HARBORS    PTSUNNY   77  61  57 W16G24    29.75F
SILVER BAY     CLOUDY    73  59  60 SW5       29.74F
GRAND MARAIS     N/A     67  55  65 W7G24     29.69F
G MARAIS ARPRT   N/A     64  54  68 SW16G25   29.74S
$$
MNZ029>031-032-039>041-046>048-054>057-064-300000-
   West Central Minnesota

CITY           SKY/WX    TMP DP  RH WIND       PRES   REMARKS
FERGUS FALLS   MOSUNNY   79  54  41 NW26G32   29.93S
WHEATON        SUNNY     79  54  41 W14G24    29.98S
MORRIS         MOSUNNY   81  55  41 NW17G24   29.97R
ALEXANDRIA     SUNNY     79  52  38 NW17G35   29.97R
ELBOW LAKE     FAIR      78  54  43 NW16G28   29.96S
WADENA         MOSUNNY   75  50  41 W20G28    29.92R
GLENWOOD       SUNNY     79  52  38 W20G33    29.97S
APPLETON       SUNNY     82  48  30 W15G24    29.98S
BENSON         MOSUNNY   81  52  36 NW12      29.98R
ORTONVILLE     SUNNY     81  48  32 NW13G22   29.99S
MADISON        SUNNY     82  48  30 NW16G28   30.01R
WILLMAR        FAIR      81  55  41 W16G23    29.99S
$$
MNZ033>034-036-042>043-049>051-058-059-300000-
   Central Minnesota

CITY           SKY/WX    TMP DP  RH WIND       PRES   REMARKS
ST CLOUD       SUNNY     81  52  36 W24G33    29.92S
SAUK CENTRE    FAIR      78  54  43 W22G31    29.95R
PAYNESVILLE    PTSUNNY   76  53  44 SW21G26   29.97S
AITKIN         MOSUNNY   79  52  38 W8G23     29.86R
PINE RIVER     MOSUNNY   75  54  46 W13G25    29.91R
BRAINERD       SUNNY     78  50  37 W14G26    29.89R
STAPLES        MOSUNNY   79  50  36 W16G28    29.91R
LONG PRAIRIE   FAIR      79  52  38 W17G30    29.95R
LITTLE FALLS   SUNNY     79  46  31 W21G30    29.91S
LITCHFIELD     SUNNY     81  54  39 W13G30    29.98S
BUFFALO        MOSUNNY   80  55  42 W10G20    29.96S
MAPLE LAKE     MOSUNNY   81  57  44 W12G18    29.95S
$$
MNZ037-044-045-052-053-300000-
   East Central Minnesota

CITY           SKY/WX    TMP DP  RH WIND       PRES   REMARKS
PRINCETON      MOSUNNY   81  54  39 W21G31    29.92S
MORA           MOSUNNY   77  50  38 W16G26    29.90S
CAMBRIDGE      MOSUNNY   82  59  44 W15G21    29.89S
RUSH CITY      MOSUNNY   78  55  45 W13G21    29.90R
MOOSE LAKE     MOSUNNY   77  52  41 W12G22    29.84R
HINCKLEY       FAIR      79  55  44 W16       29.88S
CLOQUET        PTSUNNY   77  48  36 W16G28    29.82S
MCGREGOR       MOSUNNY   77  52  41 W16G25    29.86R
$$
MNZ071>073-080-081-089-090-097-098-300000-
   Southwest Minnesota

CITY           SKY/WX    TMP DP  RH WIND       PRES   REMARKS
MONTEVIDEO     SUNNY     82  54  36 NW10G21   30.01F
GRANITE FALLS  SUNNY     81  56  42 W9G17     30.02S
CANBY          SUNNY     82  48  30 NW22G35   30.03S
MARSHALL       SUNNY     82  52  34 NW24G33   30.04S
REDWOOD FALLS  SUNNY     82  54  37 W13G24    30.00S
OLIVIA         SUNNY     77  48  36 W17G25    29.99S
PIPESTONE      SUNNY     81  52  36 NW12G17   30.08S
WINDOM         SUNNY     81  52  36 W16G26    30.05S
WORTHINGTON    SUNNY     81  55  41 W13       30.08S
JACKSON        SUNNY     81  52  36 W18G26    30.07S
TRACY          SUNNY     81  54  39 W8G21     30.05S
SLAYTON        SUNNY     80  51  35 W13G21    30.08S
$$
MNZ065>067-074>077-082>085-091>093-300000-
   South Central Minnesota

CITY           SKY/WX    TMP DP  RH WIND       PRES   REMARKS
MANKATO        SUNNY     81  54  39 W15G28    30.00S
NEW ULM        SUNNY     81  52  36 W18G29    30.00S
ST JAMES       SUNNY     82  54  36 W17G25    30.03S
FAIRMONT       SUNNY     82  52  34 W17       30.04S
GLENCOE        SUNNY     81  58  44 W12G18    29.97S
FARIBAULT      SUNNY     79  54  41 W17G25    29.99S
OWATONNA       SUNNY     79  54  41 W20G25    30.00S
WASECA         SUNNY     77  52  41 W17G29    30.02S
ALBERT LEA     SUNNY     81  55  41 W10G18    30.03S
$$
MNZ078>079-086>088-094>096-300000-
   Southeast Minnesota

CITY           SKY/WX    TMP DP  RH WIND       PRES   REMARKS
ROCHESTER      SUNNY     78  55  44 W18G28    30.01S
RED WING       SUNNY     82  50  32 W18G24    29.93S
STANTON        SUNNY     80  55  42 W10G25    29.96S
DODGE CENTER   SUNNY     79  52  38 W16G23    30.01S
WINONA         SUNNY     81  50  34 W17       29.96S
AUSTIN         SUNNY     81  54  39 W14G20    30.03S
PRESTON        SUNNY     78  53  42 W17G25    30.03R
$$
ABBREVIATIONS USED IN REMARKS
   TC - TEMPERATURES IN CELSIUS
  WCI - WIND CHILL INDEX
   HX - HEAT INDEX
  VSB - VISIBILITY
$$



USA.gov is the U.S. government's official web portal to all federal, state and local government web resources and services.